Time,TemperatureF,DewpointF,PressureIn,WindDirection,WindDirectionDegrees,WindSpeedMPH,WindSpeedGustMPH,Humidity,HourlyPrecipIn,Conditions,Clouds,dailyrainin,SoftwareType,DateUTC
2013-02-14 00:11:00,47.9,46.0,29.84,West,266,0.0,0.0,94,0.00,,,0.00,weatherlink.com 1.10,2013-02-14 08:11:00,
2013-02-14 00:27:00,47.8,46.0,29.84,West,266,0.0,0.0,94,0.00,,,0.00,weatherlink.com 1.10,2013-02-14 08:27:00,
2013-02-14 00:41:00,48.2,47.0,29.84,West,266,0.0,0.0,94,0.00,,,0.00,weatherlink.com 1.10,2013-02-14 08:41:00,
2013-02-14 00:56:00,48.6,47.0,29.84,West,266,0.0,0.0,95,0.00,,,0.00,weatherlink.com 1.10,2013-02-14 08:56:00,
2013-02-14 01:12:00,48.3,47.0,29.84,West,266,0.0,0.0,94,0.00,,,0.00,weatherlink.com 1.10,2013-02-14 09:12:00,
2013-02-14 01:26:00,48.1,47.0,29.84,West,266,0.0,0.0,94,0.00,,,0.00,weatherlink.com 1.10,2013-02-14 09:26:00,
2013-02-14 01:41:00,47.0,45.0,29.84,West,266,0.0,0.0,92,0.00,,,0.00,weatherlink.com 1.10,2013-02-14 09:41:00,
2013-02-14 01:56:00,46.6,44.0,29.83,West,266,0.0,0.0,92,0.00,,,0.00,weatherlink.com 1.10,2013-02-14 09:56:00,
2013-02-14 02:11:00,46.5,44.0,29.83,West,266,0.0,0.0,91,0.00,,,0.00,weatherlink.com 1.10,2013-02-14 10:11:00,
2013-02-14 02:26:00,46.4,44.0,29.82,West,266,0.0,1.0,92,0.00,,,0.00,weatherlink.com 1.10,2013-02-14 10:26:00,
2013-02-14 02:42:00,46.5,44.0,29.81,West,266,0.0,0.0,91,0.00,,,0.00,weatherlink.com 1.10,2013-02-14 10:42:00,
2013-02-14 02:57:00,46.5,44.0,29.81,West,266,0.0,1.0,90,0.00,,,0.00,weatherlink.com 1.10,2013-02-14 10:57:00,
2013-02-14 03:12:00,46.3,43.0,29.81,West,266,0.0,0.0,89,0.00,,,0.00,weatherlink.com 1.10,2013-02-14 11:12:00,
2013-02-14 03:27:00,45.8,43.0,29.81,West,266,0.0,0.0,88,0.00,,,0.00,weatherlink.com 1.10,2013-02-14 11:27:00,
2013-02-14 03:42:00,45.6,42.0,29.81,West,266,0.0,0.0,87,0.00,,,0.00,weatherlink.com 1.10,2013-02-14 11:42:00,
2013-02-14 03:57:00,45.5,41.0,29.81,West,266,0.0,0.0,84,0.00,,,0.00,weatherlink.com 1.10,2013-02-14 11:57:00,
2013-02-14 04:12:00,45.5,41.0,29.81,West,266,0.0,0.0,83,0.00,,,0.00,weatherlink.com 1.10,2013-02-14 12:12:00,
2013-02-14 04:27:00,45.0,40.0,29.82,West,266,0.0,0.0,83,0.00,,,0.00,weatherlink.com 1.10,2013-02-14 12:27:00,
2013-02-14 04:44:00,45.0,40.0,29.82,West,269,0.0,1.0,81,0.00,,,0.00,weatherlink.com 1.10,2013-02-14 12:44:00,
2013-02-14 04:57:00,45.5,40.0,29.81,NW,324,0.0,2.0,80,0.00,,,0.00,weatherlink.com 1.10,2013-02-14 12:57:00,
2013-02-14 05:12:00,45.5,40.0,29.81,NNW,331,0.0,1.0,80,0.00,,,0.00,weatherlink.com 1.10,2013-02-14 13:12:00,
2013-02-14 05:27:00,45.6,39.0,29.81,NNW,333,0.0,1.0,79,0.00,,,0.00,weatherlink.com 1.10,2013-02-14 13:27:00,
2013-02-14 05:42:00,45.7,40.0,29.81,NNW,333,0.0,2.0,79,0.00,,,0.00,weatherlink.com 1.10,2013-02-14 13:42:00,
2013-02-14 05:57:00,45.3,39.0,29.80,NNW,333,0.0,1.0,79,0.00,,,0.00,weatherlink.com 1.10,2013-02-14 13:57:00,
2013-02-14 06:12:00,45.2,39.0,29.80,NNW,333,0.0,0.0,79,0.00,,,0.00,weatherlink.com 1.10,2013-02-14 14:12:00,
2013-02-14 06:27:00,45.5,39.0,29.80,NNW,333,0.0,1.0,77,0.00,,,0.00,weatherlink.com 1.10,2013-02-14 14:27:00,
2013-02-14 06:42:00,46.4,39.0,29.80,NNW,334,0.0,2.0,74,0.00,,,0.00,weatherlink.com 1.10,2013-02-14 14:42:00,
2013-02-14 06:57:00,46.2,39.0,29.81,NNW,334,0.0,1.0,75,0.00,,,0.00,weatherlink.com 1.10,2013-02-14 14:57:00,
2013-02-14 07:12:00,46.9,40.0,29.81,NNW,334,0.0,0.0,76,0.00,,,0.00,weatherlink.com 1.10,2013-02-14 15:12:00,
2013-02-14 07:27:00,48.9,41.0,29.81,NNW,334,0.0,0.0,74,0.00,,,0.00,weatherlink.com 1.10,2013-02-14 15:27:00,
2013-02-14 07:42:00,51.1,42.0,29.82,NNW,334,0.0,0.0,71,0.00,,,0.00,weatherlink.com 1.10,2013-02-14 15:42:00,
2013-02-14 07:59:00,53.8,41.0,29.82,NNW,342,0.0,1.0,63,0.00,,,0.00,weatherlink.com 1.10,2013-02-14 15:59:00,
2013-02-14 08:12:00,55.2,40.0,29.82,NE,46,0.0,1.0,57,0.00,,,0.00,weatherlink.com 1.10,2013-02-14 16:12:00,
2013-02-14 08:27:00,57.2,40.0,29.83,NNE,15,1.0,1.0,54,0.00,,,0.00,weatherlink.com 1.10,2013-02-14 16:27:00,
2013-02-14 08:57:00,59.6,39.0,29.84,NNE,26,0.0,2.0,46,0.00,,,0.00,weatherlink.com 1.10,2013-02-14 16:57:00,
2013-02-14 09:12:00,60.2,40.0,29.86,ESE,115,2.0,3.0,48,0.00,,,0.00,weatherlink.com 1.10,2013-02-14 17:12:00,
2013-02-14 09:28:00,60.3,41.0,29.86,ESE,119,0.0,3.0,49,0.00,,,0.00,weatherlink.com 1.10,2013-02-14 17:28:00,
2013-02-14 09:43:00,61.4,41.0,29.87,SE,132,0.0,2.0,47,0.00,,,0.00,weatherlink.com 1.10,2013-02-14 17:43:00,
2013-02-14 09:58:00,62.7,42.0,29.88,SE,146,2.0,3.0,47,0.00,,,0.00,weatherlink.com 1.10,2013-02-14 17:58:00,
2013-02-14 10:13:00,64.1,43.0,29.88,SW,221,0.0,2.0,46,0.00,,,0.00,weatherlink.com 1.10,2013-02-14 18:13:00,
2013-02-14 10:28:00,65.0,43.0,29.87,West,269,0.0,3.0,45,0.00,,,0.00,weatherlink.com 1.10,2013-02-14 18:28:00,
2013-02-14 10:43:00,65.3,43.0,29.86,WNW,286,2.0,5.0,44,0.00,,,0.00,weatherlink.com 1.10,2013-02-14 18:43:00,
2013-02-14 10:58:00,66.0,43.0,29.85,North,360,0.0,4.0,43,0.00,,,0.00,weatherlink.com 1.10,2013-02-14 18:58:00,
2013-02-14 11:13:00,66.9,43.0,29.84,SSE,152,1.0,2.0,42,0.00,,,0.00,weatherlink.com 1.10,2013-02-14 19:13:00,
2013-02-14 11:28:00,67.9,42.0,29.83,NNE,17,0.0,2.0,39,0.00,,,0.00,weatherlink.com 1.10,2013-02-14 19:28:00,
2013-02-14 11:43:00,69.3,42.0,29.82,East,98,0.0,2.0,37,0.00,,,0.00,weatherlink.com 1.10,2013-02-14 19:43:00,
2013-02-14 11:58:00,70.2,43.0,29.81,ESE,123,2.0,2.0,37,0.00,,,0.00,weatherlink.com 1.10,2013-02-14 19:58:00,
2013-02-14 12:13:00,71.6,44.0,29.80,SSE,164,0.0,4.0,37,0.00,,,0.00,weatherlink.com 1.10,2013-02-14 20:13:00,
2013-02-14 12:28:00,71.6,41.0,29.78,SE,136,0.0,3.0,33,0.00,,,0.00,weatherlink.com 1.10,2013-02-14 20:28:00,
2013-02-14 12:43:00,71.3,40.0,29.77,NW,304,3.0,3.0,32,0.00,,,0.00,weatherlink.com 1.10,2013-02-14 20:43:00,
2013-02-14 12:58:00,72.5,39.0,29.77,SSE,149,0.0,3.0,30,0.00,,,0.00,weatherlink.com 1.10,2013-02-14 20:58:00,
2013-02-14 13:14:00,73.4,43.0,29.76,NW,323,2.0,4.0,33,0.00,,,0.00,weatherlink.com 1.10,2013-02-14 21:14:00,
2013-02-14 13:28:00,73.4,47.0,29.75,West,265,2.0,4.0,39,0.00,,,0.00,weatherlink.com 1.10,2013-02-14 21:28:00,
2013-02-14 13:44:00,70.9,47.0,29.75,West,273,2.0,7.0,43,0.00,,,0.00,weatherlink.com 1.10,2013-02-14 21:44:00,
2013-02-14 13:58:00,69.5,46.0,29.74,West,272,1.0,7.0,43,0.00,,,0.00,weatherlink.com 1.10,2013-02-14 21:58:00,
2013-02-14 14:13:00,67.8,46.0,29.74,West,269,1.0,6.0,45,0.00,,,0.00,weatherlink.com 1.10,2013-02-14 22:13:00,
2013-02-14 14:28:00,66.5,47.0,29.74,West,268,0.0,5.0,50,0.00,,,0.00,weatherlink.com 1.10,2013-02-14 22:28:00,
2013-02-14 14:44:00,66.0,46.0,29.74,South,172,0.0,5.0,49,0.00,,,0.00,weatherlink.com 1.10,2013-02-14 22:44:00,
2013-02-14 14:58:00,65.6,46.0,29.74,South,181,1.0,6.0,50,0.00,,,0.00,weatherlink.com 1.10,2013-02-14 22:58:00,
2013-02-14 15:14:00,64.9,45.0,29.74,WNW,287,1.0,7.0,49,0.00,,,0.00,weatherlink.com 1.10,2013-02-14 23:14:00,
2013-02-14 15:28:00,65.0,49.0,29.74,WSW,239,4.0,6.0,57,0.00,,,0.00,weatherlink.com 1.10,2013-02-14 23:28:00,
2013-02-14 15:44:00,64.6,49.0,29.74,NNW,336,3.0,7.0,57,0.00,,,0.00,weatherlink.com 1.10,2013-02-14 23:44:00,
2013-02-14 15:59:00,63.5,51.0,29.75,WNW,286,3.0,7.0,63,0.00,,,0.00,weatherlink.com 1.10,2013-02-14 23:59:00,
2013-02-14 16:14:00,62.4,52.0,29.75,West,259,0.0,7.0,70,0.00,,,0.00,weatherlink.com 1.10,2013-02-15 00:14:00,
2013-02-14 16:29:00,61.6,53.0,29.75,WSW,247,2.0,8.0,73,0.00,,,0.00,weatherlink.com 1.10,2013-02-15 00:29:00,
2013-02-14 16:44:00,59.5,52.0,29.75,SW,220,5.0,6.0,77,0.00,,,0.00,weatherlink.com 1.10,2013-02-15 00:44:00,
2013-02-14 16:59:00,58.1,51.0,29.75,WSW,252,3.0,6.0,77,0.00,,,0.00,weatherlink.com 1.10,2013-02-15 00:59:00,
2013-02-14 17:14:00,56.9,51.0,29.75,West,259,0.0,4.0,80,0.00,,,0.00,weatherlink.com 1.10,2013-02-15 01:14:00,
2013-02-14 17:29:00,55.8,51.0,29.75,WNW,284,0.0,5.0,83,0.00,,,0.00,weatherlink.com 1.10,2013-02-15 01:29:00,
2013-02-14 17:44:00,54.8,50.0,29.76,West,263,0.0,2.0,85,0.00,,,0.00,weatherlink.com 1.10,2013-02-15 01:44:00,
2013-02-14 17:59:00,54.2,50.0,29.77,WNW,296,0.0,2.0,85,0.00,,,0.00,weatherlink.com 1.10,2013-02-15 01:59:00,
2013-02-14 18:14:00,53.7,50.0,29.77,WNW,296,0.0,0.0,87,0.00,,,0.00,weatherlink.com 1.10,2013-02-15 02:14:00,
2013-02-14 18:29:00,53.3,50.0,29.77,WSW,252,0.0,2.0,88,0.00,,,0.00,weatherlink.com 1.10,2013-02-15 02:29:00,
2013-02-14 18:44:00,52.9,50.0,29.78,NW,314,0.0,5.0,89,0.00,,,0.00,weatherlink.com 1.10,2013-02-15 02:44:00,
2013-02-14 18:59:00,52.8,49.0,29.79,West,259,0.0,4.0,88,0.00,,,0.00,weatherlink.com 1.10,2013-02-15 02:59:00,
2013-02-14 19:14:00,52.7,50.0,29.79,NW,323,0.0,3.0,89,0.00,,,0.00,weatherlink.com 1.10,2013-02-15 03:14:00,
2013-02-14 19:29:00,52.6,50.0,29.79,NW,321,0.0,1.0,89,0.00,,,0.00,weatherlink.com 1.10,2013-02-15 03:29:00,
2013-02-14 19:44:00,52.6,50.0,29.79,NW,321,0.0,0.0,89,0.00,,,0.00,weatherlink.com 1.10,2013-02-15 03:44:00,
2013-02-14 19:59:00,52.2,49.0,29.79,NW,321,0.0,0.0,89,0.00,,,0.00,weatherlink.com 1.10,2013-02-15 03:59:00,
2013-02-14 20:14:00,52.3,50.0,29.79,NW,321,0.0,1.0,91,0.00,,,0.00,weatherlink.com 1.10,2013-02-15 04:14:00,
2013-02-14 20:29:00,52.3,50.0,29.80,NW,321,0.0,1.0,90,0.00,,,0.00,weatherlink.com 1.10,2013-02-15 04:29:00,
2013-02-14 20:44:00,52.0,50.0,29.81,NW,321,0.0,0.0,91,0.00,,,0.00,weatherlink.com 1.10,2013-02-15 04:44:00,
2013-02-14 20:59:00,51.5,49.0,29.81,NW,321,0.0,0.0,90,0.00,,,0.00,weatherlink.com 1.10,2013-02-15 04:59:00,
2013-02-14 21:14:00,50.9,48.0,29.82,NW,321,0.0,0.0,90,0.00,,,0.00,weatherlink.com 1.10,2013-02-15 05:14:00,
2013-02-14 21:29:00,50.6,48.0,29.82,NW,321,0.0,0.0,91,0.00,,,0.00,weatherlink.com 1.10,2013-02-15 05:29:00,
2013-02-14 21:44:00,50.3,48.0,29.82,NW,321,0.0,0.0,91,0.00,,,0.00,weatherlink.com 1.10,2013-02-15 05:44:00,
2013-02-14 21:59:00,50.8,49.0,29.82,NW,321,0.0,1.0,93,0.00,,,0.00,weatherlink.com 1.10,2013-02-15 05:59:00,
2013-02-14 22:14:00,50.9,49.0,29.83,NW,321,0.0,0.0,93,0.00,,,0.00,weatherlink.com 1.10,2013-02-15 06:14:00,
2013-02-14 22:29:00,50.7,49.0,29.83,NW,321,0.0,1.0,92,0.00,,,0.00,weatherlink.com 1.10,2013-02-15 06:29:00,
2013-02-14 22:44:00,51.5,49.0,29.82,NNE,29,0.0,1.0,92,0.00,,,0.00,weatherlink.com 1.10,2013-02-15 06:44:00,
2013-02-14 22:59:00,52.1,49.0,29.83,NNE,32,3.0,3.0,88,0.00,,,0.00,weatherlink.com 1.10,2013-02-15 06:59:00,
2013-02-14 23:14:00,53.2,47.0,29.83,NNE,13,0.0,2.0,79,0.00,,,0.00,weatherlink.com 1.10,2013-02-15 07:14:00,
2013-02-14 23:29:00,54.5,46.0,29.82,North,5,0.0,2.0,73,0.00,,,0.00,weatherlink.com 1.10,2013-02-15 07:29:00,
2013-02-14 23:44:00,55.0,45.0,29.82,NNW,348,0.0,2.0,69,0.00,,,0.00,weatherlink.com 1.10,2013-02-15 07:44:00,
2013-02-14 23:59:00,55.7,44.0,29.82,NNW,348,1.0,2.0,64,0.00,,,0.00,weatherlink.com 1.10,2013-02-15 07:59:00,